Location: Kershaw
(34.5481°N, 80.5823°W)
Time: 08:22:27
(UTC+00:00)

Altair - Pass Details

Date: 09 October 2022
Orbit: 1501 x 1682 km, 47.2° (Epoch: 08 December)

Event Time Altitude Azimuth Distance (km) Brightness Sun altitude
Rises 14:09:40 0° 304° (NW) 4,869 9.6 31.0°
Reaches altitude 10° 14:12:49 10° 307° (NW) 3,899 9.2 31.6°
Maximum altitude 14:22:52 72° 31° (NNE) 1,747 8.3 33.2°
Drops below altitude 10° 14:33:02 10° 116° (ESE) 3,935 10.9 34.9°
Sets 14:36:12 0° 118° (ESE) 4,915 11.1 35.4°
